SCP
0 0 0 0 0 0 0 0 0 0 0 0 0 0 0 0 0 0 0 0 0 0 0 0 0 0 0 0 0 0 0 0 0 0 0 0 0 0 0 -0 -0 0 0
0 0 0 0 0 0 0 0 0 0 0 0 0 0 0 0 0 0 0 0 0 0 0 0 0 0 0 0 0 0 0 0 0 0 0 0 0 0 0 -0 -0 0 0
0 0 0 0 0 0 0 0 0 0 0 0 0 0 0 0 0 0 0 0 0 0 0 0 0 0 0 0 0 0 0 0 0 0 0 0 0 0 -0 0 0 0 0
0 0 0 0 0 0 0 0 0 0 0 0 0 0 0 0 0 0 0 0 0 0 0 0 0 0 0 0 0 0 0 0 0 0 0 0 0 0 0 -0 0 0 0
0 0 0 0 0 0 0 0 0 0 0 0 0 0 0 0 0 0 0 0 0 0 0 0 0 0 0 0 0 0 0 0 0 0 0 0 0 0 -0 0 0 0 0
0 0 0 0 0 0 0 0 0 0 0 0 0 0 0 0 0 0 0 0 0 0 0 0 0 0 0 0 0 0 0 0 0 0 0 0 0 0 0 0 0 0 0
0 0 0 0 0 0 0 0 0 0 0 0 0 0 0 0 0 0 0 0 0 0 0 0 0 0 0 0 0 0 0 0 0 0 0 0 0 0 0 0 0 0 0
0 0 0 0 0 0 0 0 0 0 0 0 0 0 0 0 0 0 0 0 0 0 0 0 0 0 0 0 0 0 0 0 0 0 0 0 0 0 0 0 0 0 0
0 0 0 0 0 0 0 0 0 0 0 0 0 0 0 0 0 0 0 0 0 0 0 0 0 0 0 0 0 0 0 0 0 0 0 0 0 0 0 0 0 0 0
0 0 0 0 0 0 0 0 0 0 0 0 0 0 0 0 0 0 0 0 0 0 0 0 0 0 0 0 0 0 0 0 0 0 0 0 0 0 0 0 0 0 0
0 0 0 0 0 0 0 0 0 0 0 0 0 0 0 0 0 0 -0 0 0 0 0 0 0 0 0 0 0 0 0 0 0 0 0 -0 -0 0 0 0 0 0 0
0 0 0 0 0 0 0 0 0 0 0 0 0 0 0 0 0 0 0 0 0 0 0 0 0 0 0 0 0 0 0 0 0 0 -0 -0 -0 -0 0 0 0 0 0
0 0 0 0 0 0 0 0 0 0 0 0 0 0 0 0 0 0 0 0 0 0 0 0 0 0 0 0 0 0 0 0 0 0 0 0 0 0 0 0 0 0 0
0 0 0 0 0 0 0 0 0 0 0 0 0 0 0 0 0 0 0 0 0 0 0 0 0 0 0 0 0 0 0 0 0 0 0 0 0 0 0 0 0 0 0
0 0 0 0 0 0 0 0 0 0 0 0 0 0 0 0 0 0 0 0 0 0 0 0 0 0 0 0 0 0 0 0 0 0 0 0 0 0 0 0 0 0 0
0 0 0 0 0 0 0 0 0 0 0 0 0 0 0 0 0 0 0 0 0 0 0 0 0 0 0 0 0 0 0 0 0 0 0 0 0 0 0 0 0 0 -0
0 0 0 0 0 0 0 0 0 0 0 0 0 0 0 0 0 0 0 0 0 0 0 0 0 0 0 0 0 0 0 0 0 0 0 0 0 0 -0 0 0 0 0
0 0 0 0 0 0 0 0 0 0 0 0 0 0 0 0 0 0 0 0 0 0 0 0 0 0 0 0 0 0 0 0 0 0 0 0 -0 -0 -0 0 0 0 0
0 0 0 0 0 0 0 0 0 0 0 0 0 0 0 0 0 0 0 0 0 0 0 0 0 0 0 0 0 0 0 0 0 0 0 0 -0 -0 0 0 0 0 0
0 0 0 0 0 0 0 0 0 0 0 0 0 0 0 0 0 0 0 0 0 0 0 0 0 0 0 0 0 0 0 0 0 0 0 0 -0 -0 -0 0 0 0 0
0 0 0 0 0 0 0 0 0 0 0 0 0 0 0 0 0 0 0 0 0 0 0 0 0 0 0 0 0 0 0 0 0 0 0 -0 -0 -0 -0 0 -0 0 0
0 0 0 0 0 0 0 0 0 0 0 0 0 0 0 0 0 0 0 0 0 0 0 0 0 0 0 0 0 0 0 0 0 0 0 -0 -0 0 0 0 0 0 0
0 0 0 0 0 0 0 0 0 0 0 0 0 0 0 0 0 0 0 0 0 0 0 0 0 0 0 0 0 0 0 0 0 0 0 0 -0 -0 0 0 0 0 0
0 0 0 0 0 0 0 0 0 0 0 0 0 0 0 0 0 0 0 0 0 0 0 0 0 0 0 0 0 0 0 0 0 0 0 -0 -0 -0 0 0 0 0 0
0 0 0 0 0 0 0 0 0 0 0 0 0 0 0 0 0 0 0 0 0 0 0 0 0 0 0 0 0 0 0 0 0 0 0 0 -0 -0 0 0 0 0 0
0 0 0 0 0 0 0 0 0 0 0 0 0 0 0 0 0 0 0 0 0 0 0 0 0 0 0 0 0 0 0 0 0 0 0 0 -0 -0 0 0 0 0 0
Wind_Speed_500mb
7 13 17 18 17 20 21 23 28 28 29 30 28 24 23 27 35 39 42 47 52 54 54 41 37 42 43 42 46 47 47 52 65 68 58 51 49 47 52 61 67 59 45
11 15 19 16 15 19 23 27 26 29 28 29 30 28 25 28 35 43 51 60 60 57 40 26 40 41 42 44 48 49 44 47 55 66 59 54 50 49 58 61 61 54 40
12 20 16 15 18 20 17 25 33 25 29 31 28 26 31 35 43 45 48 54 47 33 28 33 37 37 36 47 53 49 45 53 46 51 59 53 51 50 55 57 61 56 35
13 11 13 17 18 20 23 26 31 31 29 40 27 26 33 42 48 51 54 57 54 39 37 40 47 50 48 51 49 46 49 53 52 50 53 56 54 47 47 59 68 61 46
8 11 13 15 22 21 23 28 30 35 33 42 35 29 38 41 51 56 56 55 60 52 46 49 47 47 47 43 44 44 48 52 56 57 56 47 43 48 52 54 60 63 52
10 5 12 15 21 21 20 28 30 28 33 43 40 36 40 41 48 52 58 52 55 55 49 59 52 53 50 49 49 52 47 43 51 52 46 40 41 44 49 49 51 56 66
4 7 9 13 18 17 24 23 19 31 38 36 31 34 40 48 48 52 49 51 58 55 51 62 62 58 46 50 53 50 51 51 50 42 39 45 40 40 46 42 42 45 53
8 8 10 16 18 23 24 25 32 35 31 26 34 40 43 45 51 42 39 51 63 62 64 62 49 47 45 52 54 56 63 55 34 36 41 50 41 42 37 40 36 38 40
6 13 17 19 19 25 27 25 34 36 27 34 44 55 58 50 35 29 44 60 64 66 61 51 43 42 46 51 59 53 47 44 36 36 36 29 16 26 30 27 23 30 38
18 20 14 13 22 26 23 31 29 26 37 44 36 45 27 34 40 46 57 61 61 59 58 52 42 43 47 45 45 44 39 39 42 36 27 26 15 12 6 4 12 24 30
13 11 11 17 26 21 26 28 25 34 32 19 45 32 36 46 51 54 58 58 55 55 57 60 51 44 45 40 35 38 36 33 34 26 34 35 31 21 14 11 11 20 18
9 14 18 22 23 25 28 30 27 23 38 39 41 27 35 49 53 49 50 46 51 49 53 52 51 49 44 37 34 32 36 29 27 32 36 32 23 20 15 16 12 9 16
11 15 20 21 20 23 22 31 30 30 39 31 33 36 49 46 49 46 48 47 53 47 47 47 44 46 44 38 31 27 26 28 31 32 31 25 19 16 15 17 14 16 21
13 16 20 21 26 17 27 35 39 37 33 32 33 43 46 51 51 53 50 48 51 53 50 46 41 41 42 41 40 27 19 20 26 28 28 21 16 13 11 12 11 2 8
10 13 20 17 22 27 27 31 34 38 35 26 33 40 48 60 56 53 50 48 51 58 56 46 45 44 47 43 40 36 25 21 22 24 22 17 14 13 14 4 6 5 1
20 23 28 25 24 22 28 33 40 40 20 27 40 48 58 57 50 48 41 44 48 55 59 53 48 46 48 46 41 39 31 26 17 17 18 16 12 13 14 3 3 4 4
22 19 26 40 16 19 27 37 45 16 21 32 47 63 56 54 51 43 35 42 50 51 60 61 56 51 48 46 42 38 35 28 23 14 15 9 7 9 12 3 2 4 6
17 22 35 21 20 29 30 31 25 21 30 44 55 51 55 54 38 26 36 42 47 55 63 67 64 57 52 49 42 38 34 29 23 19 11 9 8 6 10 4 3 3 2
17 17 27 26 30 25 24 35 19 34 46 59 59 55 59 50 32 31 36 43 52 60 66 70 65 58 53 47 42 38 34 30 24 20 14 12 12 9 7 6 4 4 5
5 13 23 29 22 23 36 31 26 40 54 54 60 59 55 51 45 43 39 41 49 56 64 67 61 56 52 48 45 40 36 31 25 20 17 16 16 14 10 6 6 7 8
16 21 28 24 23 35 29 29 31 44 50 53 55 54 48 54 50 48 47 45 49 56 61 61 59 59 55 52 48 44 39 32 24 20 17 17 18 18 14 10 11 11 12
20 24 25 25 26 32 36 12 32 48 47 49 56 62 49 59 57 55 53 50 50 52 54 61 64 62 58 55 50 46 42 37 29 20 16 18 19 19 18 16 18 17 14
18 20 24 23 28 28 22 30 44 44 42 46 58 59 55 61 63 60 58 52 52 56 63 65 65 63 58 53 48 41 37 34 30 23 16 17 21 23 25 23 25 21 19
18 24 22 25 26 26 27 37 44 35 33 46 63 55 55 57 66 64 61 53 57 58 63 66 63 61 56 50 43 33 32 30 24 15 7 16 22 26 30 33 31 28 23
21 21 22 26 28 30 31 33 37 28 40 51 64 53 52 58 69 66 61 57 60 62 65 66 64 58 52 46 36 29 25 24 21 19 9 15 25 30 32 36 36 35 30
18 18 19 20 29 24 31 30 29 38 47 55 65 52 53 62 69 66 60 61 63 66 67 63 59 54 49 41 34 25 25 21 22 22 23 20 25 31 33 39 39 38 38
Wind_Direction_500mb
355 346 336 330 325 330 335 340 345 347 347 346 346 337 326 324 320 322 320 313 309 307 311 305 311 315 311 309 319 321 317 319 318 318 322 328 331 339 331 326 336 332 319
320 329 333 333 338 345 341 336 340 341 348 0 2 8 344 333 336 331 323 319 318 318 321 316 324 324 316 311 316 321 317 321 319 318 320 324 336 336 328 326 334 339 325
316 320 330 339 339 325 328 328 338 342 358 354 355 347 332 334 338 349 6 5 357 355 355 331 331 329 323 318 316 314 317 325 328 323 320 323 329 328 327 330 340 343 341
310 330 333 328 334 347 335 338 348 353 345 347 341 332 330 337 344 353 358 2 8 2 349 337 333 331 324 314 310 310 317 324 331 321 323 322 325 326 332 334 336 342 346
297 293 314 342 346 346 345 349 342 338 335 338 340 325 327 332 338 345 345 352 348 354 355 340 327 325 321 315 315 313 321 322 323 321 316 328 324 331 337 337 336 336 348
315 348 9 340 338 349 340 332 340 332 329 330 332 328 320 328 333 342 337 337 341 341 334 337 332 327 324 316 315 316 317 324 324 320 307 319 320 322 325 329 333 339 340
1 41 356 317 325 323 322 333 320 321 322 332 340 335 323 329 335 332 327 330 333 340 325 327 329 324 319 317 314 311 313 317 319 316 316 304 311 310 321 319 325 330 333
40 20 296 292 306 314 320 315 320 330 337 350 347 346 333 336 330 316 319 325 332 340 336 331 334 332 326 319 317 309 313 316 312 308 302 313 292 302 298 307 309 319 336
3 270 280 297 318 326 335 332 327 341 356 346 340 333 325 319 319 326 326 333 343 343 345 344 337 333 323 319 320 322 324 322 312 316 311 308 288 280 286 299 312 327 343
258 291 318 346 324 331 332 331 338 353 347 347 354 349 2 352 346 337 340 342 340 345 352 5 2 353 341 336 328 325 322 332 319 322 324 314 280 288 21 6 359 341 342
306 332 2 324 325 329 323 344 356 352 349 349 344 356 343 342 337 338 341 339 344 348 353 356 353 346 346 349 338 336 338 329 331 331 333 321 302 280 304 329 319 348 328
358 8 337 336 334 334 328 343 347 342 333 326 331 331 333 335 328 331 336 348 350 350 353 351 351 348 337 344 340 344 337 332 330 335 332 330 304 288 287 275 284 297 315
3 316 318 326 331 340 340 341 336 324 321 313 320 333 343 347 342 339 347 351 351 346 343 348 347 347 352 348 334 335 340 345 336 338 339 340 342 329 322 296 276 262 316
325 11 351 333 327 353 355 344 336 328 310 310 330 345 354 350 348 344 349 349 350 352 348 344 344 348 353 353 356 340 324 331 330 335 339 342 344 348 335 324 332 207 23
10 353 331 360 7 348 350 339 343 336 328 329 340 352 353 346 346 342 344 345 348 352 346 341 347 348 349 350 352 355 352 325 322 327 334 332 339 342 3 337 325 286 301
351 351 353 351 332 341 359 359 340 330 343 340 348 352 349 342 342 337 338 339 341 346 352 353 349 344 341 343 342 344 345 344 330 320 327 322 320 347 345 330 310 319 328
350 12 350 345 6 4 353 352 340 3 3 348 347 346 341 338 333 331 333 335 343 342 351 355 351 344 340 338 336 334 335 337 331 312 304 291 291 319 319 298 327 299 282
16 9 1 15 9 358 356 353 351 4 353 349 346 343 339 339 338 330 329 333 343 345 348 347 345 341 338 335 334 330 326 324 321 318 304 234 230 280 295 293 301 319 292
2 352 4 6 6 23 2 346 341 341 344 343 348 344 343 347 343 341 342 341 340 341 342 342 341 339 336 333 331 329 327 321 310 299 286 258 237 249 274 250 249 191 163
40 335 342 355 3 347 344 339 328 341 348 351 346 345 343 345 346 340 339 338 336 334 337 339 339 338 336 334 332 329 327 326 319 294 274 252 231 238 230 221 185 176 163
21 15 13 19 357 344 346 332 332 347 354 346 345 347 356 359 352 348 344 338 334 334 338 340 340 340 338 332 329 327 325 322 315 303 274 249 235 230 224 191 159 145 142
31 18 1 356 344 350 342 321 345 356 349 340 346 352 1 1 357 354 348 344 341 343 345 344 343 342 338 335 333 330 327 325 319 301 269 237 224 210 194 183 161 149 146
30 7 4 3 357 360 340 340 348 355 339 338 347 354 357 356 356 354 350 350 346 348 349 346 344 341 341 340 339 337 337 339 331 313 274 223 210 201 190 179 164 155 147
27 356 7 360 358 351 348 341 344 347 333 340 346 355 354 353 353 352 350 350 348 350 351 345 345 345 345 346 347 352 354 347 347 343 265 209 190 189 183 178 167 161 155
16 8 6 5 356 354 358 341 343 342 341 345 345 353 350 351 352 353 350 352 351 353 353 350 351 352 353 355 2 17 20 15 17 32 67 163 173 175 174 173 170 168 161
10 351 345 12 6 10 4 353 352 345 343 344 342 354 350 351 352 353 352 351 353 355 356 357 357 359 1 10 24 27 12 21 34 55 65 97 149 161 163 162 161 162 161
Wind_Speed_850mb
7 13 17 18 17 20 21 23 28 28 29 30 28 24 23 27 35 39 42 47 52 54 54 41 37 42 43 42 46 47 47 52 65 68 58 51 49 47 52 61 67 59 45
11 15 19 16 15 19 23 27 26 29 28 29 30 28 25 28 35 43 51 60 60 57 40 26 40 41 42 44 48 49 44 47 55 66 59 54 50 49 58 61 61 54 40
12 20 16 15 18 20 17 25 33 25 29 31 28 26 31 35 43 45 48 54 47 33 28 33 37 37 36 47 53 49 45 53 46 51 59 53 51 50 55 57 61 56 35
13 11 13 17 18 20 23 26 31 31 29 40 27 26 33 42 48 51 54 57 54 39 37 40 47 50 48 51 49 46 49 53 52 50 53 56 54 47 47 59 68 61 46
8 11 13 15 22 21 23 28 30 35 33 42 35 29 38 41 51 56 56 55 60 52 46 49 47 47 47 43 44 44 48 52 56 57 56 47 43 48 52 54 60 63 52
10 5 12 15 21 21 20 28 30 28 33 43 40 36 40 41 48 52 58 52 55 55 49 59 52 53 50 49 49 52 47 43 51 52 46 40 41 44 49 49 51 56 66
4 7 9 13 18 17 24 23 19 31 38 36 31 34 40 48 48 52 49 51 58 55 51 62 62 58 46 50 53 50 51 51 50 42 39 45 40 40 46 42 42 45 53
8 8 10 16 18 23 24 25 32 35 31 26 34 40 43 45 51 42 39 51 63 62 64 62 49 47 45 52 54 56 63 55 34 36 41 50 41 42 37 40 36 38 40
6 13 17 19 19 25 27 25 34 36 27 34 44 55 58 50 35 29 44 60 64 66 61 51 43 42 46 51 59 53 47 44 36 36 36 29 16 26 30 27 23 30 38
18 20 14 13 22 26 23 31 29 26 37 44 36 45 27 34 40 46 57 61 61 59 58 52 42 43 47 45 45 44 39 39 42 36 27 26 15 12 6 4 12 24 30
13 11 11 17 26 21 26 28 25 34 32 19 45 32 36 46 51 54 58 58 55 55 57 60 51 44 45 40 35 38 36 33 34 26 34 35 31 21 14 11 11 20 18
9 14 18 22 23 25 28 30 27 23 38 39 41 27 35 49 53 49 50 46 51 49 53 52 51 49 44 37 34 32 36 29 27 32 36 32 23 20 15 16 12 9 16
11 15 20 21 20 23 22 31 30 30 39 31 33 36 49 46 49 46 48 47 53 47 47 47 44 46 44 38 31 27 26 28 31 32 31 25 19 16 15 17 14 16 21
13 16 20 21 26 17 27 35 39 37 33 32 33 43 46 51 51 53 50 48 51 53 50 46 41 41 42 41 40 27 19 20 26 28 28 21 16 13 11 12 11 2 8
10 13 20 17 22 27 27 31 34 38 35 26 33 40 48 60 56 53 50 48 51 58 56 46 45 44 47 43 40 36 25 21 22 24 22 17 14 13 14 4 6 5 1
20 23 28 25 24 22 28 33 40 40 20 27 40 48 58 57 50 48 41 44 48 55 59 53 48 46 48 46 41 39 31 26 17 17 18 16 12 13 14 3 3 4 4
22 19 26 40 16 19 27 37 45 16 21 32 47 63 56 54 51 43 35 42 50 51 60 61 56 51 48 46 42 38 35 28 23 14 15 9 7 9 12 3 2 4 6
17 22 35 21 20 29 30 31 25 21 30 44 55 51 55 54 38 26 36 42 47 55 63 67 64 57 52 49 42 38 34 29 23 19 11 9 8 6 10 4 3 3 2
17 17 27 26 30 25 24 35 19 34 46 59 59 55 59 50 32 31 36 43 52 60 66 70 65 58 53 47 42 38 34 30 24 20 14 12 12 9 7 6 4 4 5
5 13 23 29 22 23 36 31 26 40 54 54 60 59 55 51 45 43 39 41 49 56 64 67 61 56 52 48 45 40 36 31 25 20 17 16 16 14 10 6 6 7 8
16 21 28 24 23 35 29 29 31 44 50 53 55 54 48 54 50 48 47 45 49 56 61 61 59 59 55 52 48 44 39 32 24 20 17 17 18 18 14 10 11 11 12
20 24 25 25 26 32 36 12 32 48 47 49 56 62 49 59 57 55 53 50 50 52 54 61 64 62 58 55 50 46 42 37 29 20 16 18 19 19 18 16 18 17 14
18 20 24 23 28 28 22 30 44 44 42 46 58 59 55 61 63 60 58 52 52 56 63 65 65 63 58 53 48 41 37 34 30 23 16 17 21 23 25 23 25 21 19
18 24 22 25 26 26 27 37 44 35 33 46 63 55 55 57 66 64 61 53 57 58 63 66 63 61 56 50 43 33 32 30 24 15 7 16 22 26 30 33 31 28 23
21 21 22 26 28 30 31 33 37 28 40 51 64 53 52 58 69 66 61 57 60 62 65 66 64 58 52 46 36 29 25 24 21 19 9 15 25 30 32 36 36 35 30
18 18 19 20 29 24 31 30 29 38 47 55 65 52 53 62 69 66 60 61 63 66 67 63 59 54 49 41 34 25 25 21 22 22 23 20 25 31 33 39 39 38 38
Wind_Direction_850mb
355 346 336 330 325 330 335 340 345 347 347 346 346 337 326 324 320 322 320 313 309 307 311 305 311 315 311 309 319 321 317 319 318 318 322 328 331 339 331 326 336 332 319
320 329 333 333 338 345 341 336 340 341 348 0 2 8 344 333 336 331 323 319 318 318 321 316 324 324 316 311 316 321 317 321 319 318 320 324 336 336 328 326 334 339 325
316 320 330 339 339 325 328 328 338 342 358 354 355 347 332 334 338 349 6 5 357 355 355 331 331 329 323 318 316 314 317 325 328 323 320 323 329 328 327 330 340 343 341
310 330 333 328 334 347 335 338 348 353 345 347 341 332 330 337 344 353 358 2 8 2 349 337 333 331 324 314 310 310 317 324 331 321 323 322 325 326 332 334 336 342 346
297 293 314 342 346 346 345 349 342 338 335 338 340 325 327 332 338 345 345 352 348 354 355 340 327 325 321 315 315 313 321 322 323 321 316 328 324 331 337 337 336 336 348
315 348 9 340 338 349 340 332 340 332 329 330 332 328 320 328 333 342 337 337 341 341 334 337 332 327 324 316 315 316 317 324 324 320 307 319 320 322 325 329 333 339 340
1 41 356 317 325 323 322 333 320 321 322 332 340 335 323 329 335 332 327 330 333 340 325 327 329 324 319 317 314 311 313 317 319 316 316 304 311 310 321 319 325 330 333
40 20 296 292 306 314 320 315 320 330 337 350 347 346 333 336 330 316 319 325 332 340 336 331 334 332 326 319 317 309 313 316 312 308 302 313 292 302 298 307 309 319 336
3 270 280 297 318 326 335 332 327 341 356 346 340 333 325 319 319 326 326 333 343 343 345 344 337 333 323 319 320 322 324 322 312 316 311 308 288 280 286 299 312 327 343
258 291 318 346 324 331 332 331 338 353 347 347 354 349 2 352 346 337 340 342 340 345 352 5 2 353 341 336 328 325 322 332 319 322 324 314 280 288 21 6 359 341 342
306 332 2 324 325 329 323 344 356 352 349 349 344 356 343 342 337 338 341 339 344 348 353 356 353 346 346 349 338 336 338 329 331 331 333 321 302 280 304 329 319 348 328
358 8 337 336 334 334 328 343 347 342 333 326 331 331 333 335 328 331 336 348 350 350 353 351 351 348 337 344 340 344 337 332 330 335 332 330 304 288 287 275 284 297 315
3 316 318 326 331 340 340 341 336 324 321 313 320 333 343 347 342 339 347 351 351 346 343 348 347 347 352 348 334 335 340 345 336 338 339 340 342 329 322 296 276 262 316
325 11 351 333 327 353 355 344 336 328 310 310 330 345 354 350 348 344 349 349 350 352 348 344 344 348 353 353 356 340 324 331 330 335 339 342 344 348 335 324 332 207 23
10 353 331 360 7 348 350 339 343 336 328 329 340 352 353 346 346 342 344 345 348 352 346 341 347 348 349 350 352 355 352 325 322 327 334 332 339 342 3 337 325 286 301
351 351 353 351 332 341 359 359 340 330 343 340 348 352 349 342 342 337 338 339 341 346 352 353 349 344 341 343 342 344 345 344 330 320 327 322 320 347 345 330 310 319 328
350 12 350 345 6 4 353 352 340 3 3 348 347 346 341 338 333 331 333 335 343 342 351 355 351 344 340 338 336 334 335 337 331 312 304 291 291 319 319 298 327 299 282
16 9 1 15 9 358 356 353 351 4 353 349 346 343 339 339 338 330 329 333 343 345 348 347 345 341 338 335 334 330 326 324 321 318 304 234 230 280 295 293 301 319 292
2 352 4 6 6 23 2 346 341 341 344 343 348 344 343 347 343 341 342 341 340 341 342 342 341 339 336 333 331 329 327 321 310 299 286 258 237 249 274 250 249 191 163
40 335 342 355 3 347 344 339 328 341 348 351 346 345 343 345 346 340 339 338 336 334 337 339 339 338 336 334 332 329 327 326 319 294 274 252 231 238 230 221 185 176 163
21 15 13 19 357 344 346 332 332 347 354 346 345 347 356 359 352 348 344 338 334 334 338 340 340 340 338 332 329 327 325 322 315 303 274 249 235 230 224 191 159 145 142
31 18 1 356 344 350 342 321 345 356 349 340 346 352 1 1 357 354 348 344 341 343 345 344 343 342 338 335 333 330 327 325 319 301 269 237 224 210 194 183 161 149 146
30 7 4 3 357 360 340 340 348 355 339 338 347 354 357 356 356 354 350 350 346 348 349 346 344 341 341 340 339 337 337 339 331 313 274 223 210 201 190 179 164 155 147
27 356 7 360 358 351 348 341 344 347 333 340 346 355 354 353 353 352 350 350 348 350 351 345 345 345 345 346 347 352 354 347 347 343 265 209 190 189 183 178 167 161 155
16 8 6 5 356 354 358 341 343 342 341 345 345 353 350 351 352 353 350 352 351 353 353 350 351 352 353 355 2 17 20 15 17 32 67 163 173 175 174 173 170 168 161
10 351 345 12 6 10 4 353 352 345 343 344 342 354 350 351 352 353 352 351 353 355 356 357 357 359 1 10 24 27 12 21 34 55 65 97 149 161 163 162 161 162 161